Tampa Macdill AFB, FL

6:28 AM EDT on October 16, 2019 (GMT -0400)
MacDill Air Force Base

Weather History for KMCF - August, 2019

Change the Weather History Date:

Wednesday, August 14, 2019

  Actual Average Record
Temperature  
Mean Temperature 81 °F -  
Max Temperature 87 °F 88 °F 95 °F (1998)
Min Temperature 75 °F 73 °F 69 °F (2002)
Cooling Degree Days 16    
Growing Degree Days 31 (Base 50)    
Moisture  
Dew Point 77 °F    
Average Humidity 85    
Maximum Humidity 94    
Minimum Humidity 70    
Precipitation  
Precipitation 2.57 in - - ()
Sea Level Pressure  
Sea Level Pressure 29.98 in    
Wind  
Wind Speed 6 mph (South)    
Max Wind Speed 20 mph    
Max Gust Speed 28 mph    
Visibility 8 miles    
Events Rain , Thunderstorm    
Averages and records for this station are not official NWS values.
T = Trace of Precipitation, MM = Missing Value Source: NWS Daily Summary

Daily Weather History Graph

Daily Weather History Graph

Search for Another Location

Airport or City:

Astronomy

Aug. 14, 2019 Rise Set
Actual Time 6:59 AM EDT 8:09 PM EDT
Civil Twilight 6:35 AM EDT 8:33 PM EDT
Nautical Twilight 6:05 AM EDT 9:03 PM EDT
Astronomical Twilight 5:35 AM EDT 9:33 PM EDT
Moon 7:56 PM EDT (8/14) 6:04 AM EDT (8/14)
Length of Visible Light 13h 58m
Length of Day
13h 09m
Waxing Gibbous, 99% of the Moon is Illuminated
Aug 14
Waxing Gibbous
Aug 15
Full
Aug 23
Last Quarter
Aug 30
New
Sep 5
First Quarter

Hourly Weather History & Observations

Time (EDT) Temp. Heat Index Dew Point Humidity Pressure Visibility Wind Dir Wind Speed Gust Speed Precip Events Conditions
12:56 AM 82.4 °F 92.7 °F 79.2 °F 90% 29.95 in 10.0 mi South 4.6 mph - N/A   Clear
1:56 AM 82.8 °F 91.6 °F 77.0 °F 83% 29.93 in 10.0 mi SSW 3.5 mph - N/A   Clear
2:56 AM 82.4 °F 92.7 °F 79.2 °F 90% 29.93 in 10.0 mi Calm Calm - N/A   Clear
3:56 AM 83.1 °F 92.6 °F 77.4 °F 83% 29.93 in 10.0 mi SW 3.5 mph - N/A   Mostly Cloudy
4:56 AM 82.4 °F 91.2 °F 77.4 °F 85% 29.94 in 10.0 mi Calm Calm - N/A   Clear
5:44 AM 82.4 °F 90.9 °F 77.0 °F 84% 29.95 in 10.0 mi SE 3.5 mph - N/A Rain Light Rain
5:49 AM 82.4 °F 90.9 °F 77.0 °F 84% 29.95 in 10.0 mi West 4.6 mph - N/A Rain Light Rain
5:56 AM 81.5 °F 87.8 °F 75.0 °F 81% 29.95 in 10.0 mi West 3.5 mph - 0.00 in Rain Light Rain
6:09 AM 80.6 °F 87.1 °F 77.0 °F 89% 29.96 in 10.0 mi SSW 3.5 mph - N/A Thunderstorm Mostly Cloudy
6:10 AM 80.6 °F 87.1 °F 77.0 °F 89% 29.96 in 10.0 mi South 5.8 mph - N/A Thunderstorm Thunderstorm
6:12 AM 80.6 °F 87.1 °F 77.0 °F 89% 29.96 in 10.0 mi South 8.1 mph - N/A Rain , Thunderstorm Light Thunderstorms and Rain
6:17 AM 80.6 °F 87.1 °F 77.0 °F 89% 29.96 in 10.0 mi South 8.1 mph - N/A Rain , Thunderstorm Light Thunderstorms and Rain
6:28 AM 80.6 °F 86.2 °F 75.2 °F 84% 29.96 in 10.0 mi SE 8.1 mph - N/A Thunderstorm Thunderstorm
6:39 AM 80.6 °F 86.2 °F 75.2 °F 84% 29.96 in 10.0 mi SE 8.1 mph - N/A   Mostly Cloudy
6:56 AM 79.5 °F - 75.2 °F 87% 29.97 in 10.0 mi ESE 9.2 mph - 0.00 in   Scattered Clouds
7:56 AM 78.6 °F - 76.1 °F 92% 29.97 in 10.0 mi Calm Calm - N/A   Clear
8:56 AM 80.6 °F 87.3 °F 77.4 °F 90% 29.99 in 10.0 mi SE 3.5 mph - N/A   Partly Cloudy
9:18 AM 82.4 °F 90.9 °F 77.0 °F 84% 29.98 in 10.0 mi Calm Calm - N/A Thunderstorm Thunderstorm
9:33 AM 82.4 °F 90.9 °F 77.0 °F 84% 29.99 in 10.0 mi SSE 4.6 mph - N/A Thunderstorm Clear
9:53 AM 82.4 °F 90.9 °F 77.0 °F 84% 30.00 in 10.0 mi SSE 8.1 mph - N/A   Mostly Cloudy
9:56 AM 82.2 °F 90.4 °F 76.8 °F 84% 30.00 in 10.0 mi SSE 9.2 mph - N/A   Mostly Cloudy
10:21 AM 82.4 °F 90.9 °F 77.0 °F 84% 30.00 in 10.0 mi SSW 9.2 mph - N/A   Mostly Cloudy
10:56 AM 82.2 °F 89.9 °F 76.1 °F 82% 30.00 in 10.0 mi South 6.9 mph - N/A Thunderstorm Mostly Cloudy
10:57 AM 82.4 °F 89.5 °F 75.2 °F 79% 30.00 in 10.0 mi South 8.1 mph - N/A Thunderstorm Light Drizzle
11:02 AM 82.4 °F 90.9 °F 77.0 °F 84% 30.00 in 10.0 mi South 10.4 mph - N/A   Light Drizzle
11:20 AM 82.4 °F 90.9 °F 77.0 °F 84% 29.99 in 10.0 mi SSW 3.5 mph - N/A   Light Drizzle
11:23 AM 82.4 °F 90.9 °F 77.0 °F 84% 29.99 in 10.0 mi South 4.6 mph - N/A   Scattered Clouds
11:56 AM 82.0 °F 89.9 °F 76.6 °F 84% 29.99 in 10.0 mi SSE 5.8 mph - 0.06 in   Scattered Clouds
12:35 PM 82.4 °F 90.9 °F 77.0 °F 84% 29.99 in 10.0 mi South 5.8 mph - N/A Rain Light Rain
12:39 PM 82.4 °F 90.9 °F 77.0 °F 84% 29.99 in 10.0 mi South 6.9 mph - N/A   Mostly Cloudy
12:44 PM 82.4 °F 90.9 °F 77.0 °F 84% 29.98 in 10.0 mi South 6.9 mph - N/A Rain Light Rain
12:56 PM 83.1 °F 92.6 °F 77.4 °F 83% 29.98 in 10.0 mi SSW 9.2 mph - 0.00 in   Light Drizzle
1:05 PM 84.2 °F 94.1 °F 77.0 °F 79% 29.98 in 10.0 mi SSW 11.5 mph - N/A   Scattered Clouds
1:12 PM 84.2 °F 96.1 °F 78.8 °F 84% 29.98 in 10.0 mi SSW 10.4 mph - N/A   Light Drizzle
1:25 PM 84.2 °F 96.1 °F 78.8 °F 84% 29.98 in 10.0 mi SSW 11.5 mph - N/A   Scattered Clouds
1:54 PM 86.0 °F 99.3 °F 78.8 °F 79% 29.99 in 10.0 mi South 12.7 mph - N/A Rain Light Rain
1:56 PM 85.8 °F 98.8 °F 78.8 °F 79% 29.99 in 10.0 mi South 12.7 mph - 0.00 in Rain Light Rain
2:14 PM 86.0 °F 99.3 °F 78.8 °F 79% 29.98 in 10.0 mi SSW 12.7 mph - N/A   Mostly Cloudy
2:56 PM 87.6 °F 102.6 °F 79.3 °F 76% 29.96 in 10.0 mi South 12.7 mph - 0.00 in   Mostly Cloudy
3:44 PM 86.0 °F 99.3 °F 78.8 °F 79% 29.95 in 10.0 mi South 10.4 mph - N/A Rain Rain
3:56 PM 85.1 °F 99.4 °F 80.1 °F 85% 29.95 in 10.0 mi South 10.4 mph - 0.04 in Rain Light Rain
4:01 PM 86.0 °F 101.9 °F 80.6 °F 84% 29.95 in 10.0 mi South 10.4 mph - N/A   Mostly Cloudy
4:56 PM 85.3 °F 97.2 °F 78.3 °F 79% 29.93 in 10.0 mi SSE 8.1 mph - 0.00 in   Scattered Clouds
5:19 PM 84.2 °F 96.1 °F 78.8 °F 84% 29.93 in 10.0 mi SSE 8.1 mph - N/A   Light Drizzle
5:28 PM 84.2 °F 96.1 °F 78.8 °F 84% 29.93 in 10.0 mi SSE 6.9 mph - N/A   Mostly Cloudy
5:44 PM 86.0 °F 99.3 °F 78.8 °F 79% 29.92 in 10.0 mi South 6.9 mph - N/A   Light Drizzle
5:50 PM 86.0 °F 99.3 °F 78.8 °F 79% 29.92 in 10.0 mi South 6.9 mph - N/A   Partly Cloudy
5:56 PM 85.6 °F 98.2 °F 78.6 °F 79% 29.91 in 10.0 mi South 8.1 mph - 0.00 in   Scattered Clouds
6:55 PM 87.8 °F 99.7 °F 77.0 °F 70% 29.91 in 7.0 mi Variable 6.9 mph - N/A   Mostly Cloudy
7:56 PM 84.7 °F 95.2 °F 77.4 °F 78% 29.94 in 10.0 mi SSW 11.5 mph - N/A   Mostly Cloudy
8:41 PM - - - N/A% 29.96 in - SW 6.9 mph - N/A   Light Drizzle
8:54 PM 84.2 °F 96.1 °F 78.8 °F 84% 29.96 in 10.0 mi SSW 8.1 mph - N/A Thunderstorm Unknown
8:56 PM 84.2 °F 95.7 °F 78.4 °F 83% 29.96 in 10.0 mi SSW 8.1 mph - N/A Thunderstorm Unknown
9:11 PM 84.2 °F 94.1 °F 77.0 °F 79% 29.96 in 10.0 mi South 11.5 mph - N/A Rain Light Rain
9:19 PM 82.4 °F 90.9 °F 77.0 °F 84% 29.96 in 10.0 mi South 13.8 mph - N/A Rain , Thunderstorm Light Thunderstorms and Rain
9:26 PM 82.4 °F 90.9 °F 77.0 °F 84% 29.96 in 10.0 mi South 11.5 mph - N/A Thunderstorm Thunderstorm
9:34 PM 82.4 °F 90.9 °F 77.0 °F 84% 29.96 in 10.0 mi South 9.2 mph - N/A Thunderstorm Scattered Clouds
9:43 PM 82.4 °F 90.9 °F 77.0 °F 84% 29.97 in 10.0 mi South 9.2 mph - N/A Thunderstorm Thunderstorm
9:56 PM 82.0 °F 89.4 °F 75.9 °F 82% 29.98 in 10.0 mi South 10.4 mph 20.7 mph 0.00 in Thunderstorm Thunderstorm
10:06 PM 78.8 °F - 73.4 °F 83% 29.98 in 10.0 mi SSE 19.6 mph 27.6 mph N/A Rain , Thunderstorm Light Thunderstorms and Rain
10:11 PM 78.8 °F - 75.2 °F 89% 29.99 in 10.0 mi South 15.0 mph - N/A Rain , Thunderstorm Heavy Thunderstorms and Rain
10:21 PM 77.0 °F - 73.4 °F 89% 30.01 in 2.0 mi SSW 17.3 mph 26.5 mph N/A Rain , Thunderstorm Heavy Thunderstorms and Rain
10:26 PM 77.0 °F - 73.4 °F 89% 30.02 in 2.0 mi South 13.8 mph 24.2 mph N/A Rain , Thunderstorm Heavy Thunderstorms and Rain
10:36 PM 77.0 °F - 75.2 °F 94% 30.02 in 0.8 mi SSW 17.3 mph - N/A Rain , Thunderstorm Heavy Thunderstorms and Rain
10:40 PM 77.0 °F - 75.2 °F 94% 30.02 in 0.5 mi SSW 16.1 mph - N/A Rain , Thunderstorm Heavy Rain
10:41 PM 77.0 °F - 75.2 °F 94% 30.03 in 0.5 mi SSW 15.0 mph - N/A Rain , Thunderstorm Heavy Thunderstorms and Rain
10:46 PM 77.0 °F - 75.2 °F 94% 30.03 in 1.0 mi South 8.1 mph - N/A Rain , Thunderstorm Heavy Thunderstorms and Rain
10:51 PM 77.0 °F - 73.4 °F 89% 30.03 in 1.6 mi SW 5.8 mph - N/A Rain , Thunderstorm Heavy Thunderstorms and Rain
10:53 PM 77.0 °F - 73.4 °F 89% 30.03 in 1.8 mi West 4.6 mph - N/A Rain , Thunderstorm Heavy Thunderstorms and Rain
10:56 PM 75.9 °F - 73.4 °F 92% 30.03 in 1.9 mi West 5.8 mph - 1.99 in Rain , Thunderstorm Heavy Thunderstorms and Rain
11:06 PM 75.2 °F - 73.4 °F 94% 30.01 in 1.4 mi West 3.5 mph - N/A Rain , Thunderstorm Heavy Thunderstorms and Rain
11:11 PM 75.2 °F - 73.4 °F 94% 30.02 in 1.0 mi Calm Calm - N/A Rain , Thunderstorm Heavy Thunderstorms and Rain
11:16 PM 77.0 °F - 75.2 °F 94% 30.02 in 1.5 mi NW 4.6 mph - N/A Rain , Thunderstorm Heavy Thunderstorms and Rain
11:21 PM 77.0 °F - 75.2 °F 94% 30.01 in 2.0 mi Calm Calm - N/A Rain , Thunderstorm Heavy Thunderstorms and Rain
11:27 PM 77.0 °F - 75.2 °F 94% 30.01 in 2.0 mi Calm Calm - N/A Rain , Thunderstorm Heavy Thunderstorms and Rain
11:32 PM 77.0 °F - 75.2 °F 94% 30.01 in 3.0 mi South 4.6 mph - N/A Rain , Thunderstorm Heavy Thunderstorms and Rain
11:33 PM 77.0 °F - 75.2 °F 94% 30.01 in 3.0 mi South 4.6 mph - N/A Rain Rain
11:56 PM 76.6 °F - 74.7 °F 94% 30.01 in 5.0 mi South 5.8 mph - 0.48 in Rain Light Rain